Location: Haliburton Scout Reserve
(45.0900°N, 78.3200°W)
Time: 10:34:50
(UTC-04:00)

ITAMSAT 1 - Visible Passes

Search period start: 04 October 2024 00:00
Search period end: 14 October 2024 00:00
Orbit: 781 x 795 km, 98.8° (Epoch: 03 October)

Date Brightness Start Highest point End Pass type
(mag) Time Alt. Az. Time Alt. Az. Time Alt. Az.
04 Oct 9.1 20:40:01 22° NE 20:40:01 22° NE 20:43:05 10° NNE visible
04 Oct 9.4 22:20:43 28° NW 22:20:43 28° NW 22:23:16 10° NNW visible
05 Oct 9.5 20:09:46 13° NE 20:09:46 13° NE 20:11:52 10° NNE visible
05 Oct 8.9 21:50:28 34° N 21:50:28 34° N 21:53:20 10° NNW visible
06 Oct 8.8 21:20:13 31° NNE 21:20:13 31° NNE 21:23:08 10° N visible
06 Oct 10.3 23:00:55 15° NW 23:00:55 15° NW 23:02:01 10° NW visible
07 Oct 9.1 20:49:58 23° NE 20:49:58 23° NE 20:52:40 10° N visible
07 Oct 9.8 22:30:40 22° NW 22:30:40 22° NW 22:32:33 10° NNW visible
08 Oct 9.5 20:19:43 15° NE 20:19:43 15° NE 20:21:44 10° NNE visible
08 Oct 9.4 22:00:24 27° NNW 22:00:24 27° NNW 22:02:42 10° NNW visible
09 Oct 9.1 21:30:09 27° N 21:30:09 27° N 21:32:35 10° N visible
09 Oct 10.6 23:10:50 11° NW 23:10:50 11° NW 23:11:06 10° NW visible
10 Oct 9.2 20:59:53 22° NNE 20:59:53 22° NNE 21:02:12 10° N visible
10 Oct 10.2 22:40:35 17° NW 22:40:35 17° NW 22:41:48 10° NNW visible
11 Oct 9.5 20:29:37 16° NE 20:29:37 16° NE 20:31:26 10° NNE visible
11 Oct 9.8 22:10:19 21° NNW 22:10:19 21° NNW 22:12:03 10° NNW visible
12 Oct 9.5 21:40:03 23° N 21:40:03 23° N 21:41:59 10° N visible
13 Oct 9.4 21:09:47 21° NNE 21:09:47 21° NNE 21:11:41 10° N visible
13 Oct 10.5 22:50:29 12° NW 22:50:29 12° NW 22:50:59 10° NW visible
